GW4740 Weather Reports


Display with metric or nautical units.
time (UTC)temp
F
wind
direction
speed
MPH
gust
MPH
rain 1hr
in
rain 24hr
in
rain mn
in
humidity
%
barometer
mb
20260505223014 76 217 9.0 16.0 0.00 0.00 0.00 24 1007.0
20260505221518 76 209 8.0 21.0 0.00 0.00 0.00 26 1007.2
20260505220030 76 233 13.0 25.0 0.00 0.00 0.00 25 1007.3
20260505214505 77 236 15.0 24.0 0.00 0.00 0.00 24 1007.6
20260505213012 76 282 12.0 19.0 0.00 0.00 0.00 25 1007.7
20260505193023 72 220 2.0 8.0 0.00 0.00 0.00 33 1009.4
20260505191515 71 296 4.0 11.0 0.00 0.00 0.00 35 1009.5
20260505190009 69 155 5.0 12.0 0.00 0.00 0.00 36 1010.1
20260505184508 69 157 3.0 6.0 0.00 0.00 0.00 36 1010.2
20260505183006 69 106 2.0 5.0 0.00 0.00 0.00 35 1010.1
20260505181507 69 134 3.0 6.0 0.00 0.00 0.00 36 1010.2
20260505180017 69 125 2.0 9.0 0.00 0.00 0.00 35 1010.3
20260505174508 70 123 4.0 9.0 0.00 0.00 0.00 33 1010.5
20260505173010 70 117 5.0 9.0 0.00 0.00 0.00 33 1010.4
20260505171508 69 90 3.0 7.0 0.00 0.00 0.00 36 1010.7
20260505170010 68 130 5.0 9.0 0.00 0.00 0.00 35 1010.8
20260505164508 70 58 1.0 4.0 0.00 0.00 0.00 31 1010.9
20260505163010 70 332 4.0 8.0 0.00 0.00 0.00 30 1010.9
20260505151512 68 278 3.0 9.0 0.00 0.00 0.00 31 1010.9
20260505124516 63 289 5.0 8.0 0.00 0.00 0.00 38 1010.1
20260505123028 64 289 6.0 9.0 0.00 0.00 0.00 36 1009.8
20260505121505 64 302 4.0 7.0 0.00 0.00 0.00 34 1009.7
20260505120015 65 226 7.0 11.0 0.00 0.00 0.00 33 1009.2
20260505114512 65 274 2.0 6.0 0.00 0.00 0.00 33 1009.2
20260505113018 65 311 3.0 9.0 0.00 0.00 0.00 32 1009.1
20260505111521 65 288 5.0 10.0 0.00 0.00 0.00 33 1009.3
20260505101531 66 322 3.0 7.0 0.00 0.00 0.00 31 1009.2
20260505100050 67 285 2.0 5.0 0.00 0.00 0.00 30 1009.1
20260505094506 67 274 3.0 6.0 0.00 0.00 0.00 30 1009.2
20260505093016 66 274 5.0 10.0 0.00 0.00 0.00 31 1008.9
20260505091519 62 268 2.0 4.0 0.00 0.00 0.00 35 1009.0
20260505090022 62 323 1.0 3.0 0.00 0.00 0.00 36 1008.9
20260505084505 63 326 2.0 6.0 0.00 0.00 0.00 35 1008.8
20260505083012 64 345 1.0 2.0 0.00 0.00 0.00 34 1008.6
20260505081514 64 314 1.0 2.0 0.00 0.00 0.00 32 1008.8
20260505080022 64 314 1.0 4.0 0.00 0.00 0.00 31 1008.6
20260505074522 63 65 3.0 4.0 0.00 0.00 0.00 33 1008.4
20260505073027 64 132 0.0 2.0 0.00 0.00 0.00 33 1008.3
20260505071514 65 107 1.0 2.0 0.00 0.00 0.00 32 1008.2
20260505070020 67 107 1.0 4.0 0.00 0.00 0.00 29 1008.5
20260505064524 68 250 1.0 5.0 0.00 0.00 0.00 24 1008.3
20260505063026 69 274 3.0 6.0 0.00 0.00 0.00 24 1008.2
20260505061520 68 260 2.0 7.0 0.00 0.00 0.00 24 1008.2
20260505060016 67 243 2.0 7.0 0.00 0.00 0.00 26 1008.5
20260505054520 67 226 3.0 7.0 0.00 0.00 0.00 27 1008.5
20260505053036 68 186 3.0 8.0 0.00 0.00 0.00 26 1008.2
20260505051537 69 225 4.0 8.0 0.00 0.00 0.00 25 1008.0
20260505041526 69 203 2.0 5.0 0.00 0.00 0.00 26 1008.2
20260505040030 70 160 3.0 7.0 0.00 0.00 0.00 25 1008.0
20260505034520 71 198 2.0 6.0 0.00 0.00 0.00 25 1008.1
20260505033022 72 200 2.0 5.0 0.00 0.00 0.00 24 1008.0
20260505031531 73 191 4.0 7.0 0.00 0.00 0.00 23 1007.8
20260505030014 73 218 4.0 7.0 0.00 0.00 0.00 22 1007.8
20260505023022 75 195 5.0 8.0 0.00 0.00 0.00 19 1007.6
20260505021506 76 212 3.0 9.0 0.00 0.00 0.00 18 1007.4
20260505020010 76 244 3.0 7.0 0.00 0.00 0.00 18 1007.2
20260505014514 77 266 4.0 8.0 0.00 0.00 0.00 18 1007.0
20260505013023 78 229 3.0 10.0 0.00 0.00 0.00 18 1006.8
20260505001520 79 204 2.0 5.0 0.00 0.00 0.00 19 1007.1
20260505000007 79 233 3.0 8.0 0.00 0.00 0.00 19 1007.2
20260504234507 80 209 3.0 8.0 0.00 0.00 0.00 16 1007.5
20260504233013 80 228 6.0 11.0 0.00 0.00 0.00 14 1007.6
20260504231519 80 273 7.0 13.0 0.00 0.00 0.00 13 1007.8
20260504230037 79 242 7.0 14.0 0.00 0.00 0.00 12 1007.8
20260504224506 79 273 8.0 15.0 0.00 0.00 0.00 12 1007.8